TimeCDT,TemperatureF,Dew PointF,Humidity,Sea Level PressureIn,VisibilityMPH,Wind Direction,Wind SpeedMPH,Gust SpeedMPH,PrecipitationIn,Events,Conditions,WindDirDegrees,DateUTC
12:15 AM,53.1,53.4,100,30.07,10.0,North,5.8,-,N/A,,Overcast,350,2013-05-06 05:15:00
12:35 AM,53.2,53.6,100,30.07,7.0,North,6.9,-,N/A,,Overcast,360,2013-05-06 05:35:00
12:55 AM,53.2,53.6,100,30.07,7.0,North,5.8,-,N/A,,Overcast,350,2013-05-06 05:55:00
1:35 AM,52.2,52.3,100,30.05,7.0,North,8.1,-,N/A,,Overcast,350,2013-05-06 06:35:00
1:55 AM,52.0,52.2,100,30.05,7.0,North,5.8,-,N/A,,Overcast,350,2013-05-06 06:55:00
2:15 AM,51.4,51.6,100,30.05,7.0,NNE,9.2,-,N/A,,Overcast,20,2013-05-06 07:15:00
2:35 AM,50.9,50.9,100,30.05,7.0,North,8.1,-,N/A,,Overcast,350,2013-05-06 07:35:00
2:55 AM,50.9,50.9,100,30.05,7.0,North,6.9,-,N/A,,Overcast,360,2013-05-06 07:55:00
3:15 AM,50.9,50.9,100,30.04,5.0,North,4.6,-,N/A,,Overcast,350,2013-05-06 08:15:00
3:35 AM,50.9,50.9,100,30.04,5.0,North,4.6,-,N/A,,Overcast,360,2013-05-06 08:35:00
3:55 AM,50.9,50.9,100,30.04,5.0,North,5.8,-,N/A,,Overcast,10,2013-05-06 08:55:00
4:15 AM,50.9,50.9,100,30.04,5.0,North,5.8,-,N/A,,Overcast,10,2013-05-06 09:15:00
4:35 AM,50.9,50.9,100,30.05,5.0,North,8.1,-,N/A,,Overcast,350,2013-05-06 09:35:00
4:55 AM,50.9,50.9,100,30.05,4.0,North,6.9,-,N/A,,Overcast,350,2013-05-06 09:55:00
5:15 AM,50.9,-9999,N/A,30.06,4.0,North,6.9,-,N/A,,Overcast,360,2013-05-06 10:15:00
5:35 AM,50.9,-9999,N/A,30.06,3.0,North,8.1,-,N/A,,Overcast,360,2013-05-06 10:35:00
5:55 AM,50.9,-9999,N/A,30.06,4.0,North,5.8,-,N/A,,Overcast,10,2013-05-06 10:55:00
6:15 AM,50.9,-9999,N/A,30.07,3.0,North,4.6,-,N/A,,Overcast,350,2013-05-06 11:15:00
6:35 AM,50.9,-9999,N/A,30.07,2.0,NNW,5.8,-,N/A,,Overcast,340,2013-05-06 11:35:00
6:55 AM,50.9,-9999,N/A,30.07,2.0,NNW,9.2,-,N/A,,Overcast,330,2013-05-06 11:55:00
7:15 AM,50.9,-9999,N/A,30.08,2.5,North,4.6,-,N/A,,Overcast,10,2013-05-06 12:15:00
7:35 AM,50.9,-9999,N/A,30.09,2.5,North,4.6,-,N/A,,Overcast,350,2013-05-06 12:35:00
7:55 AM,50.9,-9999,N/A,30.09,2.0,North,3.5,-,N/A,,Overcast,350,2013-05-06 12:55:00
8:15 AM,50.9,-9999,N/A,30.09,2.0,North,5.8,-,N/A,,Overcast,360,2013-05-06 13:15:00
8:35 AM,50.9,-9999,N/A,30.09,1.8,North,5.8,-,N/A,,Overcast,360,2013-05-06 13:35:00
8:55 AM,50.9,-9999,N/A,30.09,2.0,North,5.8,-,N/A,,Overcast,360,2013-05-06 13:55:00
9:15 AM,50.9,-9999,N/A,30.09,2.5,North,5.8,-,N/A,,Overcast,360,2013-05-06 14:15:00
9:35 AM,50.9,-9999,N/A,30.10,3.0,North,5.8,-,N/A,,Overcast,360,2013-05-06 14:35:00
9:55 AM,50.9,-9999,N/A,30.10,4.0,North,4.6,-,N/A,,Overcast,10,2013-05-06 14:55:00
10:15 AM,51.4,51.6,100,30.11,3.0,North,4.6,-,N/A,,Overcast,10,2013-05-06 15:15:00
10:35 AM,51.8,52.0,100,30.11,4.0,NNE,5.8,-,N/A,,Overcast,20,2013-05-06 15:35:00
10:55 AM,52.7,52.9,100,30.11,4.0,NNE,5.8,-,N/A,,Overcast,30,2013-05-06 15:55:00
11:15 AM,53.2,53.6,100,30.12,4.0,North,3.5,-,N/A,,Overcast,350,2013-05-06 16:15:00
11:35 AM,53.2,53.6,100,30.12,5.0,NNE,3.5,-,N/A,,Overcast,20,2013-05-06 16:35:00
11:55 AM,53.2,53.6,100,30.12,5.0,NNW,3.5,-,N/A,,Overcast,330,2013-05-06 16:55:00
12:15 PM,54.9,55.2,100,30.12,5.0,NNE,3.5,-,N/A,,Overcast,20,2013-05-06 17:15:00
12:35 PM,55.8,55.9,100,30.11,5.0,North,3.5,-,0.01,,Overcast,350,2013-05-06 17:35:00
12:55 PM,55.8,55.9,100,30.10,5.0,NNW,3.5,-,0.01,,Overcast,330,2013-05-06 17:55:00
1:15 PM,55.8,55.9,100,30.10,7.0,North,5.8,-,N/A,,Overcast,350,2013-05-06 18:15:00
1:35 PM,55.8,55.9,100,30.09,7.0,NW,3.5,-,N/A,,Overcast,310,2013-05-06 18:35:00
1:55 PM,55.9,56.1,100,30.09,7.0,NW,5.8,-,N/A,,Overcast,320,2013-05-06 18:55:00
2:15 PM,57.0,56.7,99,30.09,7.0,NW,5.8,-,N/A,,Overcast,320,2013-05-06 19:15:00
2:35 PM,58.3,57.2,96,30.08,10.0,NNW,8.1,-,N/A,,Mostly Cloudy,340,2013-05-06 19:35:00
2:55 PM,58.3,56.8,95,30.08,10.0,NW,4.6,-,N/A,,Mostly Cloudy,310,2013-05-06 19:55:00
3:15 PM,58.3,56.1,93,30.07,10.0,North,4.6,-,N/A,,Mostly Cloudy,10,2013-05-06 20:15:00
3:35 PM,58.6,55.0,88,30.06,10.0,North,5.8,-,N/A,,Mostly Cloudy,10,2013-05-06 20:35:00
3:55 PM,60.4,56.5,87,30.05,10.0,North,3.5,-,N/A,,Mostly Cloudy,350,2013-05-06 20:55:00
4:15 PM,60.8,56.1,85,30.05,10.0,North,4.6,-,N/A,,Mostly Cloudy,350,2013-05-06 21:15:00
4:35 PM,61.3,53.6,76,30.04,10.0,North,4.6,-,N/A,,Scattered Clouds,10,2013-05-06 21:35:00
4:55 PM,62.6,53.6,72,30.04,10.0,East,4.6,-,N/A,,Scattered Clouds,90,2013-05-06 21:55:00
5:15 PM,63.3,53.6,71,30.04,10.0,North,3.5,-,N/A,,Mostly Cloudy,360,2013-05-06 22:15:00
5:55 PM,63.5,52.9,68,30.04,10.0,Calm,Calm,-,N/A,,Scattered Clouds,0,2013-05-06 22:55:00
6:15 PM,63.5,53.1,69,30.04,10.0,Calm,Calm,-,N/A,,Clear,0,2013-05-06 23:15:00
6:35 PM,63.5,52.5,67,30.04,10.0,NW,3.5,-,N/A,,Clear,310,2013-05-06 23:35:00
6:55 PM,63.5,52.2,67,30.04,-9999.0,Calm,Calm,-,N/A,,Clear,0,2013-05-06 23:55:00
7:15 PM,63.1,53.6,71,30.04,10.0,Calm,Calm,-,N/A,,Clear,0,2013-05-07 00:15:00
7:35 PM,62.6,54.3,74,30.04,10.0,West,3.5,-,N/A,,Clear,260,2013-05-07 00:35:00
8:15 PM,61.0,57.9,90,30.04,10.0,Calm,Calm,-,N/A,,Clear,0,2013-05-07 01:15:00
8:35 PM,59.4,59.4,100,30.05,10.0,Calm,Calm,-,N/A,,Clear,0,2013-05-07 01:35:00
8:55 PM,56.8,57.0,100,30.05,10.0,Calm,Calm,-,N/A,,Clear,0,2013-05-07 01:55:00
9:15 PM,55.8,55.9,100,30.06,10.0,Calm,Calm,-,N/A,,Clear,0,2013-05-07 02:15:00
9:35 PM,55.8,-9999,N/A,30.07,10.0,Calm,Calm,-,N/A,,Clear,0,2013-05-07 02:35:00
9:55 PM,55.4,-9999,N/A,30.07,7.0,Calm,Calm,-,N/A,,Clear,0,2013-05-07 02:55:00
10:15 PM,53.2,-9999,N/A,30.07,10.0,Calm,Calm,-,N/A,,Clear,0,2013-05-07 03:15:00
10:35 PM,52.7,-9999,N/A,30.08,5.0,Calm,Calm,-,N/A,,Clear,0,2013-05-07 03:35:00
10:55 PM,51.8,-9999,N/A,30.08,5.0,Calm,Calm,-,N/A,,Clear,0,2013-05-07 03:55:00
11:15 PM,50.9,-9999,N/A,30.08,2.5,Calm,Calm,-,N/A,,Clear,0,2013-05-07 04:15:00
11:35 PM,50.9,-9999,N/A,30.08,0.8,Calm,Calm,-,N/A,,Unknown,0,2013-05-07 04:35:00
11:55 PM,50.9,-9999,N/A,30.08,2.5,Calm,Calm,-,N/A,,Clear,0,2013-05-07 04:55:00